GW7261 Weather Reports


time (UTC)temp
F
wind
direction
speed
knots
gust
knots
rain 1hr
in
rain 24hr
in
rain mn
in
humidity
%
barometer
mb
20260906121331 70 45 0.9 5.2 0.00 0.00 0.00 96 1019.3
20260906115531 69 315 0.0 0.0 0.00 0.00 0.00 94 1018.9
20260906114931 69 315 0.0 0.9 0.00 0.00 0.00 94 1018.9
20260906114330 69 315 0.0 0.0 0.00 0.00 0.00 93 1018.8
20260906113730 69 315 0.0 0.0 0.00 0.00 0.00 95 1018.7
20260906113130 69 315 0.0 0.0 0.00 0.00 0.00 93 1018.7
20260906112530 69 315 0.0 0.0 0.00 0.00 0.00 93 1018.5
20260906111930 69 90 0.0 0.0 0.00 0.00 0.00 95 1018.3
20260906111329 69 90 0.0 0.0 0.00 0.00 0.00 96 1018.3
20260906110729 69 90 0.0 0.0 0.00 0.00 0.00 96 1018.4
20260906110129 70 90 0.0 1.7 0.00 0.00 0.00 96 1018.4
20260906105529 69 315 0.0 0.0 0.00 0.00 0.00 94 1018.4
20260906104329 70 180 0.0 0.0 0.00 0.00 0.00 91 1018.1
20260906103728 70 180 0.0 0.0 0.00 0.00 0.00 92 1018.0
20260906103128 70 180 0.0 0.0 0.00 0.00 0.00 93 1017.9
20260906102528 70 270 0.0 0.0 0.00 0.00 0.00 95 1017.9
20260906101928 70 270 0.0 0.0 0.00 0.00 0.00 96 1017.9
20260906101328 70 90 0.0 0.0 0.00 0.00 0.00 96 1017.9
20260906100727 70 90 0.0 0.0 0.00 0.00 0.00 95 1017.9
20260906094927 70 315 0.0 0.9 0.00 0.00 0.00 94 1017.8
20260906094327 70 90 0.0 0.0 0.00 0.00 0.00 88 1017.8
20260906092526 71 90 0.0 0.0 0.00 0.00 0.00 92 1017.8
20260906091926 71 90 0.0 0.0 0.00 0.00 0.00 91 1017.7
20260906091326 71 315 0.0 0.0 0.00 0.00 0.00 91 1017.6
20260906090726 71 315 0.0 0.9 0.00 0.00 0.00 86 1017.6
20260906090126 71 315 0.0 0.0 0.00 0.00 0.00 86 1017.6
20260906085525 71 315 0.0 0.0 0.00 0.00 0.00 85 1017.6
20260906084925 72 315 0.0 0.0 0.00 0.00 0.00 87 1017.7
20260906084325 72 315 0.0 0.0 0.00 0.00 0.00 87 1017.6
20260906083725 72 315 0.0 0.0 0.00 0.00 0.00 84 1017.6
20260906083125 72 315 0.0 0.0 0.00 0.00 0.00 84 1017.6
20260906082524 72 315 0.0 0.0 0.00 0.00 0.00 86 1017.5
20260906081924 72 315 0.0 0.0 0.00 0.00 0.00 86 1017.5
20260906081324 72 225 0.0 0.0 0.00 0.00 0.00 85 1017.6
20260906080724 72 225 0.0 0.0 0.00 0.00 0.00 85 1017.7
20260906080123 72 225 0.0 0.0 0.00 0.00 0.00 86 1017.8
20260906074923 72 90 0.0 0.9 0.00 0.00 0.00 88 1017.8
20260906073723 72 0 0.0 1.7 0.00 0.00 0.00 89 1017.8
20260906073123 72 135 0.0 0.9 0.00 0.00 0.00 88 1017.8
20260906072522 73 315 0.0 0.9 0.00 0.00 0.00 88 1017.7
20260906071923 73 0 0.0 0.0 0.00 0.00 0.00 87 1017.7
20260906071322 73 0 0.0 0.9 0.00 0.00 0.00 87 1017.9
20260906070722 73 0 0.0 0.9 0.00 0.00 0.00 87 1017.9
20260906070122 73 270 0.0 0.9 0.00 0.00 0.00 86 1017.9
20260906065522 73 90 0.0 1.7 0.00 0.00 0.00 86 1017.9
20260906064921 73 90 0.9 3.5 0.00 0.00 0.00 85 1017.9
20260906063721 73 90 1.7 4.3 0.00 0.00 0.00 85 1017.7
20260906063121 73 45 1.7 4.3 0.00 0.00 0.00 85 1017.8
20260906062521 73 90 3.5 10.4 0.00 0.00 0.00 85 1017.9
20260906061921 73 45 1.7 5.2 0.00 0.00 0.00 84 1017.7
20260906061320 73 90 1.7 5.2 0.00 0.00 0.00 83 1017.8
20260906060720 73 45 0.9 2.6 0.00 0.00 0.00 82 1017.8
20260906060120 73 45 1.7 4.3 0.00 0.00 0.00 82 1017.8
20260906055520 73 90 2.6 7.0 0.00 0.00 0.00 81 1017.7
20260906054920 73 90 3.5 7.0 0.00 0.00 0.00 80 1017.7
20260906054320 73 90 3.5 7.8 0.00 0.00 0.00 80 1017.8
20260906053720 73 90 3.5 7.8 0.00 0.00 0.00 80 1017.7
20260906053119 74 0 0.9 2.6 0.00 0.00 0.00 80 1017.8
20260906052519 74 90 1.7 2.6 0.00 0.00 0.00 80 1017.7
20260906051919 74 90 0.9 2.6 0.00 0.00 0.00 80 1017.6
20260906051319 74 90 4.3 8.7 0.00 0.00 0.00 80 1017.6
20260906050719 74 90 0.9 5.2 0.00 0.00 0.00 80 1017.5
20260906045519 74 90 3.5 7.0 0.00 0.00 0.00 80 1017.5
20260906044918 74 45 2.6 6.1 0.00 0.00 0.00 80 1017.4
20260906044318 74 0 2.6 5.2 0.00 0.00 0.00 80 1017.4
20260906043718 73 90 1.7 5.2 0.00 0.00 0.00 80 1017.2
20260906043118 73 90 5.2 12.2 0.00 0.00 0.00 80 1017.1
20260906041918 73 90 0.9 4.3 0.00 0.00 0.00 80 1016.8
20260906041317 73 45 0.9 3.5 0.00 0.00 0.00 80 1016.8
20260906040717 73 90 1.7 6.1 0.00 0.00 0.00 80 1016.7
20260906040117 73 90 1.7 5.2 0.00 0.00 0.00 80 1016.7
20260906035517 74 45 1.7 3.5 0.00 0.00 0.00 80 1016.6
20260906034917 74 90 4.3 8.7 0.00 0.00 0.00 79 1016.7
20260906033716 74 90 3.5 9.6 0.00 0.00 0.00 79 1016.6
20260906033116 74 90 3.5 8.7 0.00 0.00 0.00 79 1016.6
20260906032516 74 90 6.1 11.3 0.00 0.00 0.00 79 1016.6
20260906031916 74 45 2.6 7.8 0.00 0.00 0.00 79 1016.6
20260906031316 74 90 3.5 8.7 0.00 0.00 0.00 79 1016.6
20260906030715 74 90 4.3 9.6 0.00 0.00 0.00 79 1016.7
20260906030116 74 90 3.5 7.0 0.00 0.00 0.00 78 1016.6
20260906025515 74 90 2.6 5.2 0.00 0.00 0.00 78 1016.7
20260906024915 74 90 5.2 11.3 0.00 0.00 0.00 78 1016.7
20260906024315 74 45 4.3 11.3 0.00 0.00 0.00 78 1016.7
20260906023715 74 90 2.6 7.8 0.00 0.00 0.00 78 1016.7
20260906023114 74 90 3.5 7.0 0.00 0.00 0.00 78 1016.7
20260906021914 74 90 4.3 8.7 0.00 0.00 0.00 78 1016.5
20260906021314 74 45 2.6 7.0 0.00 0.00 0.00 78 1016.5
20260906020714 74 90 7.0 13.0 0.00 0.00 0.00 79 1016.5
20260906020113 74 90 3.5 9.6 0.00 0.00 0.00 79 1016.6
20260906015514 74 90 6.1 12.2 0.00 0.00 0.00 79 1016.7
20260906014913 74 45 3.5 7.0 0.00 0.00 0.00 79 1016.9
20260906014313 74 90 6.1 16.5 0.00 0.00 0.00 78 1016.8
20260906013713 74 90 5.2 13.0 0.00 0.00 0.00 78 1016.7
20260906013113 74 90 4.3 10.4 0.00 0.00 0.00 78 1016.7
20260906011913 74 90 5.2 12.2 0.00 0.00 0.00 78 1016.8
20260906011312 74 90 6.1 13.0 0.00 0.00 0.00 79 1016.8
20260906010712 74 90 3.5 7.0 0.00 0.00 0.00 78 1016.7
20260906005512 74 90 3.5 7.0 0.00 0.00 0.00 79 1016.6
20260906004911 74 90 2.6 7.0 0.00 0.00 0.00 78 1016.4
20260906004312 74 45 4.3 11.3 0.00 0.00 0.00 78 1016.4
20260906003711 74 0 3.5 8.7 0.00 0.00 0.00 78 1016.2
20260906003111 74 90 2.6 6.1 0.00 0.00 0.00 78 1016.2
20260906002511 74 45 3.5 7.8 0.00 0.00 0.00 78 1016.1
20260906001911 74 90 3.5 9.6 0.00 0.00 0.00 78 1016.1
20260906001311 74 90 7.8 13.9 0.00 0.00 0.00 78 1016.1
20260906000711 74 90 4.3 13.0 0.00 0.00 0.00 78 1016.1
20260906000110 75 45 7.0 13.0 0.00 0.00 0.00 78 1016.0
20260905235510 75 45 5.2 7.8 0.00 0.00 0.00 78 1016.1
20260905234910 75 90 5.2 12.2 0.00 0.00 0.00 78 1016.2
20260905233710 75 90 6.1 15.6 0.00 0.00 0.00 78 1016.1
20260905233109 76 90 4.3 16.5 0.00 0.00 0.00 77 1016.1
20260905232509 76 90 6.1 11.3 0.00 0.00 0.00 77 1015.9
20260905231909 77 45 5.2 10.4 0.00 0.00 0.00 76 1015.7
20260905231309 78 45 3.5 12.2 0.00 0.00 0.00 75 1015.6
20260905230109 78 45 6.1 11.3 0.00 0.00 0.00 75 1015.5
20260905225509 79 90 7.8 12.2 0.00 0.00 0.00 74 1015.4
20260905224908 79 45 3.5 6.1 0.00 0.00 0.00 74 1015.5
20260905224308 80 90 5.2 10.4 0.00 0.00 0.00 73 1015.4
20260905223108 82 90 7.0 13.0 0.00 0.00 0.00 71 1015.1
20260905222508 82 90 6.1 16.5 0.00 0.00 0.00 71 1015.0
20260905221907 82 90 5.2 10.4 0.00 0.00 0.00 70 1015.1
20260905221307 83 90 2.6 5.2 0.00 0.00 0.00 70 1015.1
20260905220108 82 90 2.6 7.0 0.00 0.00 0.00 70 1015.2
20260905215507 82 45 2.6 5.2 0.00 0.00 0.00 70 1015.1
20260905214907 83 90 1.7 4.3 0.00 0.00 0.00 70 1015.0
20260905213706 84 90 3.5 9.6 0.00 0.00 0.00 68 1015.0
20260905213106 84 90 3.5 7.8 0.00 0.00 0.00 70 1015.1
20260905212506 84 90 0.9 2.6 0.00 0.00 0.00 69 1015.0
20260905211906 84 0 0.9 4.3 0.00 0.00 0.00 70 1015.0
20260905210705 84 90 2.6 8.7 0.00 0.00 0.00 70 1015.0
20260905204905 84 90 2.6 5.2 0.00 0.00 0.00 71 1015.3
20260905203705 81 0 0.9 1.7 0.00 0.00 0.00 74 1015.4
20260905203105 81 0 1.7 5.2 0.00 0.00 0.00 74 1015.4
20260905202505 81 0 1.7 4.3 0.00 0.00 0.00 74 1015.4
20260905201904 81 90 2.6 6.1 0.00 0.00 0.00 73 1015.3
20260905201304 82 45 0.9 3.5 0.00 0.00 0.00 72 1015.4
20260905200104 81 90 2.6 7.0 0.00 0.00 0.00 72 1015.4
20260905194904 82 90 2.6 10.4 0.00 0.00 0.00 73 1015.3
20260905194303 82 0 2.6 5.2 0.00 0.00 0.00 72 1015.3
20260905193703 82 90 2.6 7.0 0.00 0.00 0.00 72 1015.3
20260905192503 83 90 2.6 5.2 0.00 0.00 0.00 71 1015.5
20260905191903 83 45 1.7 6.1 0.00 0.00 0.00 71 1015.5
20260905191303 83 45 1.7 5.2 0.00 0.00 0.00 71 1015.5
20260905190702 83 90 3.5 7.8 0.00 0.00 0.00 71 1015.5
20260905185502 83 45 0.9 3.5 0.00 0.00 0.00 71 1015.6
20260905184902 84 45 1.7 5.2 0.00 0.00 0.00 71 1015.5
20260905184302 83 45 1.7 4.3 0.00 0.00 0.00 71 1015.6
20260905183102 84 90 0.9 2.6 0.00 0.00 0.00 71 1015.7
20260905182501 83 90 2.6 7.0 0.00 0.00 0.00 72 1015.7
20260905181901 84 90 1.7 4.3 0.00 0.00 0.00 71 1015.6
20260905181301 85 0 0.9 2.6 0.00 0.00 0.00 70 1015.5
20260905180701 85 45 0.9 3.5 0.00 0.00 0.00 71 1015.4
20260905180101 84 45 1.7 7.0 0.00 0.00 0.00 70 1015.4
20260905175500 84 90 2.6 6.1 0.00 0.00 0.00 71 1015.4
20260905174900 84 0 2.6 5.2 0.00 0.00 0.00 71 1015.4
20260905174300 84 90 3.5 9.6 0.00 0.00 0.00 71 1015.4
20260905173700 83 90 1.7 5.2 0.00 0.00 0.00 72 1015.4
20260905173100 83 45 3.5 7.0 0.00 0.00 0.00 72 1015.5
20260905171259 83 90 7.0 18.2 0.00 0.00 0.00 72 1015.3
20260905170659 83 90 3.5 8.7 0.00 0.00 0.00 72 1015.4
20260905170059 83 45 2.6 7.8 0.00 0.00 0.00 73 1015.5
20260905164858 83 90 2.6 4.3 0.00 0.00 0.00 73 1015.7
20260905164259 83 90 4.3 9.6 0.00 0.00 0.00 73 1015.6
20260905163658 83 90 6.1 10.4 0.00 0.00 0.00 73 1015.7
20260905163058 83 90 5.2 9.6 0.00 0.00 0.00 72 1015.7
20260905162458 83 90 2.6 7.8 0.00 0.00 0.00 73 1015.5
20260905161257 84 0 0.9 2.6 0.00 0.00 0.00 73 1015.6
20260905160657 83 90 2.6 5.2 0.00 0.00 0.00 72 1015.5
20260905160057 83 90 2.6 6.1 0.00 0.00 0.00 73 1015.5
20260905155457 83 45 4.3 7.8 0.00 0.00 0.00 73 1015.5
20260905154857 83 90 1.7 2.6 0.00 0.00 0.00 74 1015.4
20260905154257 83 90 1.7 3.5 0.00 0.00 0.00 72 1015.3
20260905153656 82 90 5.2 11.3 0.00 0.00 0.00 73 1015.3
20260905153056 82 90 2.6 6.1 0.00 0.00 0.00 73 1015.3
20260905152456 82 90 1.7 4.3 0.00 0.00 0.00 73 1015.2
20260905151856 81 90 3.5 7.8 0.00 0.00 0.00 74 1015.1
20260905151256 81 90 2.6 5.2 0.00 0.00 0.00 75 1015.1
20260905150656 81 90 1.7 8.7 0.00 0.00 0.00 75 1015.2
20260905150056 81 90 4.3 7.8 0.00 0.00 0.00 75 1015.1
20260905145455 82 90 2.6 7.8 0.00 0.00 0.00 75 1015.1
20260905144855 81 45 0.9 2.6 0.00 0.00 0.00 76 1015.0
20260905143055 81 90 1.7 4.3 0.00 0.00 0.00 75 1015.0
20260905142455 81 45 1.7 5.2 0.00 0.00 0.00 75 1014.9
20260905141254 80 45 1.7 5.2 0.00 0.00 0.00 76 1014.8
20260905140054 79 45 1.7 5.2 0.00 0.00 0.00 78 1014.7
20260905134854 77 135 0.9 2.6 0.00 0.00 0.00 83 1014.6
20260905134254 77 0 0.9 2.6 0.00 0.00 0.00 87 1014.8
20260905133653 76 90 0.9 1.7 0.00 0.00 0.00 89 1014.9
20260905133053 76 90 2.6 5.2 0.00 0.00 0.00 92 1015.1
20260905132453 76 90 0.9 2.6 0.00 0.00 0.00 91 1015.1
20260905131853 76 45 0.9 1.7 0.00 0.00 0.00 92 1015.3
20260905131253 76 90 0.9 3.5 0.00 0.00 0.00 92 1015.0
20260905130652 76 90 1.7 5.2 0.00 0.00 0.00 92 1014.7
20260905130052 76 90 1.7 4.3 0.00 0.00 0.00 93 1014.6
20260905125452 76 90 1.7 4.3 0.00 0.00 0.00 95 1014.5
20260905124852 75 45 0.9 3.5 0.00 0.00 0.00 96 1014.4
20260905124252 75 45 0.9 1.7 0.00 0.00 0.00 96 1014.3
20260905123652 75 45 1.7 7.8 0.00 0.00 0.00 96 1014.3
20260905123051 75 90 2.6 4.3 0.00 0.00 0.00 96 1014.2
20260905121851 76 90 0.9 4.3 0.00 0.00 0.00 96 1014.0